This is the latest recevied weather packets stored in our database for station/object K9ABJ. If no packets are shown the sender has not sent any weather packets the latest 10 day(s).
| Time | Temp. | Humidity | Pressure | Rain* | Wind** | Luminosity | Snow |
|---|---|---|---|---|---|---|---|
| 1787759949 | 23.33° C | 78% | 1015.6 hPa | 0 mm | - | 210 W/m² | - |
| 1787759643 | 22.78° C | 78% | 1015.5 hPa | 0 mm | - | 218 W/m² | - |
| 1787759339 | 22.78° C | 79% | 1015.7 hPa | 0 mm | - | 224 W/m² | - |
| 1787759034 | 22.78° C | 78% | 1015.5 hPa | 0 mm | - | 143 W/m² | - |
| 1787758733 | 22.78° C | 77% | 1015.7 hPa | 0 mm | - | 77 W/m² | - |
| 1787758429 | 22.78° C | 76% | 1015.5 hPa | 0 mm | - | 159 W/m² | - |
| 1787758127 | 22.78° C | 77% | 1015.6 hPa | 0 mm | - | 225 W/m² | - |
| 1787757824 | 22.78° C | 77% | 1015.5 hPa | 0 mm | - | 234 W/m² | - |
| 1787757519 | 22.78° C | 78% | 1015.6 hPa | 0 mm | - | 242 W/m² | - |
| 1787757213 | 22.22° C | 78% | 1015.3 hPa | 0 mm | - | 197 W/m² | - |
| 1787756912 | 22.78° C | 77% | 1015.7 hPa | 0 mm | - | 224 W/m² | - |
| 1787756609 | 22.22° C | 78% | 1015.6 hPa | 0 mm | - | 159 W/m² | - |
| 1787756307 | 22.78° C | 78% | 1015.6 hPa | 0 mm | - | 201 W/m² | - |
| 1787756002 | 22.22° C | 78% | 1015.7 hPa | 0 mm | - | 191 W/m² | - |
| 1787755701 | 22.22° C | 78% | 1015.8 hPa | 0 mm | - | 148 W/m² | - |
| 1787755397 | 22.22° C | 77% | 1015.5 hPa | 0 mm | - | 192 W/m² | - |
| 1787755096 | 22.22° C | 78% | 1015.5 hPa | 0 mm | - | 194 W/m² | - |
| 1787754790 | 22.22° C | 77% | 1015.4 hPa | 0 mm | - | 126 W/m² | - |
| 1787754488 | 22.78° C | 74% | 1015.4 hPa | 0 mm | - | 158 W/m² | - |
| 1787754183 | 22.78° C | 76% | 1015.7 hPa | 0 mm | - | 294 W/m² | - |
| 1787753877 | 22.22° C | 77% | 1015.6 hPa | 0 mm | - | 306 W/m² | - |
| 1787753576 | 21.67° C | 76% | 1015.6 hPa | 0 mm | - | 256 W/m² | - |
| 1787753275 | 21.67° C | 77% | 1015.7 hPa | 0 mm | - | 215 W/m² | - |
| 1787752970 | 21.67° C | 76% | 1015.6 hPa | 0 mm | - | 402 W/m² | - |
| 1787752669 | 22.22° C | 76% | 1015.7 hPa | 0 mm | - | 275 W/m² | - |
* Rain latest hour (hover to see other rain measurements)
** Current wind speed in m/s (hover to see current wind gust speed)